Location: Newark
(45.8667°N, 9.7333°E)
Time: 18:24:42
(UTC+00:00)

Transit 4A - Pass Details

Date: 27 January 2020
Orbit: 872 x 973 km, 66.8° (Epoch: 26 February)

Event Time Altitude Azimuth Distance (km) Brightness Sun altitude
Rises 13:35:57 0° 328° (NNW) 3,473 10.6 19.9°
Reaches altitude 10° 13:38:29 10° 332° (NNW) 2,530 10.0 19.7°
Maximum altitude 13:44:16 61° 53° (NE) 992 8.1 19.2°
Drops below altitude 10° 13:50:03 10° 133° (SE) 2,537 10.4 18.6°
Sets 13:52:35 0° 137° (SE) 3,483 11.1 18.4°
